Flag for Canada Weather past 2 weeks in Hamilton, Ontario, Canada

Now
16 °F

Passing clouds.


Feels Like: 2 °F
Forecast: 16 / 32 °F
Wind: 13 mph from North

Location: Hamilton Airport

Current Time: Mar 28, 2015 at 10:33:44 AM

Latest Report: Mar 28, 2015 at 10:00 AM


Visibility: 15 mi

Pressure: 30.22 "Hg

Humidity: 48%

Dew point: 0 °F

Location of HamiltonLocation

Historic Weather in Hamilton — Graph

°F

Hamilton temperature yesterday

Maximum temperature yesterday: 34 °F (at 12:00 AM)
Minimum temperature yesterday: 16 °F (at 11:00 PM)
Average temperature yesterday: 26 °F

Past Weeks' High & Low Weather Summary

 TemperatureHumidityPressure
High48 °F (Mar 20, 4:00 PM)100% (Mar 14, 2:00 AM)30.43 "Hg (Mar 14, 2:00 AM)
Low12 °F (Mar 28, 6:00 AM)29% (Mar 19, 1:00 PM)29.68 "Hg (Mar 17, 2:00 AM)
Average30 °F69%30.09 "Hg
* Reported Mar 13 9:00 AM — Mar 28 9:00 AM, Hamilton, Weather by CustomWeather, © 2015

Note: Actual official high and low records may vary slightly from our data, if they occured in-between our weather recording intervals... More about our weather records

Advertising

Hamilton weather history for previous 24 hours

 ConditionsComfort  
Time TempWeatherWind HumidityBarometerVisibility
9:00 AM
Sat, Mar 28
14 °FPassing clouds.18 mph52%30.20 "Hg15 mi
8:00 AM12 °FPassing clouds.15 mph57%30.18 "Hg15 mi
7:00 AM12 °FPassing clouds.16 mph57%30.14 "Hg15 mi
6:00 AM12 °FPassing clouds.13 mph62%30.11 "Hg15 mi
5:00 AM14 °FPartly cloudy.13 mph62%30.09 "Hg15 mi
4:00 AM16 °FLight snow. Mostly cloudy.16 mph62%30.09 "Hg12 mi
3:00 AM16 °FLight snow. Passing clouds.12 mph62%30.09 "Hg15 mi
2:00 AM18 °FLight snow. Overcast.10 mph58%30.09 "Hg15 mi
1:00 AM18 °FLight snow. Overcast.9 mph58%30.09 "Hg15 mi
12:00 AM18 °FLight snow. Overcast.8 mph62%30.09 "Hg15 mi
11:00 PM
Fri, Mar 27
16 °FLight snow. Overcast.12 mph67%30.08 "Hg15 mi
10:00 PM18 °FLight snow. Overcast.12 mph62%30.06 "Hg15 mi
9:00 PM18 °FLight snow. Mostly cloudy.14 mph68%30.05 "Hg15 mi
8:00 PM19 °FLight snow. Broken clouds.14 mph63%30.01 "Hg15 mi
7:00 PM21 °FLight snow. Partly sunny.14 mph68%30.00 "Hg4 mi
6:00 PM23 °FLight snow. Partly sunny.14 mph63%29.97 "Hg7 mi
5:00 PM25 °FLight snow. Overcast.13 mph63%29.95 "Hg12 mi
4:00 PM25 °FLight snow. Overcast.13 mph69%29.93 "Hg5 mi
3:00 PM27 °FLight snow. Overcast.13 mph64%29.93 "Hg4 mi
2:00 PM27 °FLight snow. Mostly cloudy.12 mph69%29.93 "Hg5 mi
1:00 PM27 °FLight snow. Mostly cloudy.10 mph69%29.92 "Hg10 mi
12:00 PM27 °FLight snow. Overcast.16 mph74%29.90 "Hg10 mi
11:00 AM28 °FLight snow. Overcast.10 mph74%29.91 "Hg12 mi
10:00 AM28 °FOvercast.10 mph74%29.90 "Hg15 mi
Weather by CustomWeather, © 2015

See weather overviewHow to use our weather pages